KCIDKIGQ

Guest
Details From KCID - THE EASTERN IOWA
To KIGQ - LANSING MUNI
Flight Number -
Tags generated
Created
Modified
Stats Distance 189 nm / 349 km
Max Altitude 19,500 ft / 5,944 m
Waypoints 3
Social Downloads 0
Likes 0
Share VATSIM

Download

Looking for another format? Having issues loading an existing format? Contact us
Advertisement - Login to hide

Notes

Basic altitude profile: - Ascent Rate: 1000ft/min - Ascent Speed: 150kts - Cruise Altitude: 11500ft - Cruise Speed: 150kts - Descent Rate: 1000ft/min - Descent Speed: 150kts Options: - Use NATs: no - Use PACOTS: no - Use low airways: yes - Use high airways: no

Route

KCID LEECS KIGQ

ID Type Via Altitude Latitude Longitude Leg Dist Tot Dist Heading (true) Name
O KCID APT - 0 ft / 0 m 41.88473˚ -91.71030˚ - 0 nm - THE EASTERN IOWA
LEECS FIX - 19,500 ft / 5,944 m 41.74151˚ -89.54207˚ 97 nm 97 nm 94° / 96° -
O KIGQ APT - 0 ft / 0 m 41.53529˚ -87.52969˚ 91 nm 188 nm 97° / 98° LANSING MUNI

Altitude Profile

Advertisement - Login to hide

Weather


0- 5 10 15 20 25 30 35+ Temperature / ° C

Clouds and Precipitation
Forecast for 2018-05-27 12:00 UTC. Updated an hour ago

Ground ~20,000 ft ~40,000 ft Winds

KCID

Details ICAO KCID (CID)
Name THE EASTERN IOWA
Region United States
Timezone America/Chicago (UTC-5.0)
Stats Elevation 869 ft / 265 m (AMSL)
Location 41.884733° -91.710299°
Runways 2
Magnetic Variation 0.744° W

METAR

KCID 270952Z 15004KT 10SM CLR 21/19 A2979 RMK AO2 SLP080 T02060194

Decode

TAF

KCID 270612Z 2706/2806 16005KT P6SM SCT200

Decode

Departure Runways

ID Width Length Bearing (true) Bearing (mag) Surface Threshold Offset Overrun Length
09 150 ft / 46 m 8,580 ft / 2,615 m 90.91° 91.65° Asphalt 0 ft / 0 m 0 ft / 0 m
13 150 ft / 46 m 6,196 ft / 1,889 m 136.04° 136.78° Asphalt 0 ft / 0 m 0 ft / 0 m
27 150 ft / 46 m 8,580 ft / 2,615 m 270.93° 271.67° Asphalt 425 ft / 130 m 0 ft / 0 m
31 150 ft / 46 m 6,196 ft / 1,889 m 316.05° 316.79° Asphalt 0 ft / 0 m 0 ft / 0 m

KIGQ

Details ICAO KIGQ (IGQ)
Name LANSING MUNI
Region United States
Timezone America/Chicago (UTC-5.0)
Stats Elevation 620 ft / 189 m (AMSL)
Location 41.535286° -87.529690°
Runways 2
Magnetic Variation 3.986° W

METAR

KIGQ 271035Z AUTO 18003KT 10SM CLR 20/18 A2985 RMK AO2 T01990180

Decode

TAF

Not found

Destination Runways

ID Width Length Bearing (true) Bearing (mag) Surface Threshold Offset Overrun Length
09 75 ft / 23 m 3,388 ft / 1,033 m 90.17° 94.16° Asphalt 0 ft / 0 m 0 ft / 0 m
18 75 ft / 23 m 4,008 ft / 1,222 m 180.14° 184.13° Asphalt 350 ft / 107 m 0 ft / 0 m
27 75 ft / 23 m 3,388 ft / 1,033 m 270.18° 274.17° Asphalt 0 ft / 0 m 0 ft / 0 m
36 75 ft / 23 m 4,008 ft / 1,222 m 0.14° 4.13° Asphalt 0 ft / 0 m 0 ft / 0 m